DAL202 KJFK-LGAV

Flight info

Callsign DAL202
Flight time N/A
Altitude 35000
Route MERIT DCT HFD DCT PUT DCT BOS DCT TUSKY N265B NICSO/M082F350 DCT 48N050W 49N040W 50N030W 51N020W DCT DINIM DCT ELSOX DCT LULOX/N0469F350 DCT LIZAD DCT JSY DCT TURDU DCT TADUP DCT TEPRI UN491 POGZI DCT GELTA DCT LUVAL DCT SHARA DCT DEVDI DCT RIPUS DCT RESIA DCT LABIN DCT SPL DCT VAKSU DCT KOFER DCT PINDO DCT PIKOS UL607 XORKI
Aircraft A339/H-SADE1E2E3GHIJ3J5M1P2RWXY/LB2D1

Departure

Time 2026-05-05 16:07
Airport John F. Kennedy International Airport (KJFK)

Arrival

Time N/A
Airport Athens Eleftherios Venizelos International Airport (LGAV)
Time Latitude Longitude Altitude Speed Heading
2026-05-05 15:44 40.63985 -73.78243 24 ft 0 kts 61°
2026-05-05 15:56 40.63984 -73.78245 24 ft 1 kts 61°
2026-05-05 15:56 40.63977 -73.78263 24 ft 2 kts 61°
2026-05-05 15:56 40.63970 -73.78280 24 ft 2 kts 70°
2026-05-05 15:56 40.63966 -73.78299 24 ft 2 kts 87°
2026-05-05 15:57 40.63967 -73.78319 24 ft 2 kts 101°
2026-05-05 15:57 40.63971 -73.78337 24 ft 2 kts 116°
2026-05-05 15:57 40.63979 -73.78354 24 ft 2 kts 130°
2026-05-05 15:57 40.63990 -73.78368 24 ft 2 kts 144°
2026-05-05 15:58 40.63996 -73.78373 24 ft 1 kts 151°
2026-05-05 15:58 40.63998 -73.78374 24 ft 0 kts 150°
2026-05-05 16:00 40.63996 -73.78373 24 ft 1 kts 150°
2026-05-05 16:00 40.63939 -73.78331 24 ft 11 kts 151°
2026-05-05 16:00 40.63861 -73.78290 24 ft 12 kts 170°
2026-05-05 16:00 40.63769 -73.78278 24 ft 14 kts 173°
2026-05-05 16:01 40.63666 -73.78260 24 ft 15 kts 172°
2026-05-05 16:01 40.63559 -73.78263 22 ft 14 kts 206°
2026-05-05 16:01 40.63475 -73.78327 21 ft 9 kts 190°
2026-05-05 16:01 40.63430 -73.78288 21 ft 9 kts 129°
2026-05-05 16:02 40.63398 -73.78216 21 ft 9 kts 119°
2026-05-05 16:02 40.63361 -73.78132 21 ft 11 kts 120°
2026-05-05 16:02 40.63332 -73.78031 21 ft 12 kts 97°
2026-05-05 16:02 40.63337 -73.77916 21 ft 12 kts 77°
2026-05-05 16:03 40.63387 -73.77818 21 ft 13 kts 43°
2026-05-05 16:03 40.63463 -73.77741 22 ft 13 kts 32°
2026-05-05 16:03 40.63545 -73.77677 24 ft 13 kts 31°
2026-05-05 16:03 40.63629 -73.77611 24 ft 14 kts 30°
2026-05-05 16:04 40.63723 -73.77539 24 ft 16 kts 30°
2026-05-05 16:04 40.63822 -73.77462 24 ft 17 kts 30°
2026-05-05 16:04 40.63927 -73.77380 24 ft 18 kts 31°
2026-05-05 16:04 40.64037 -73.77293 24 ft 18 kts 31°
2026-05-05 16:05 40.64150 -73.77202 24 ft 19 kts 31°
2026-05-05 16:05 40.64266 -73.77113 24 ft 18 kts 30°
2026-05-05 16:05 40.64379 -73.77028 24 ft 18 kts 31°
2026-05-05 16:05 40.64401 -73.76936 24 ft 10 kts 128°
2026-05-05 16:06 40.64353 -73.76894 24 ft 7 kts 180°
2026-05-05 16:06 40.64301 -73.76924 24 ft 15 kts 208°
2026-05-05 16:06 40.64022 -73.77138 24 ft 76 kts 210°
2026-05-05 16:06 40.63405 -73.77623 22 ft 129 kts 210°
2026-05-05 16:07 40.62501 -73.78329 103 ft 163 kts 210°
2026-05-05 16:07 40.61518 -73.79109 507 ft 172 kts 208°
2026-05-05 16:07 40.60359 -73.79654 836 ft 191 kts 178°
2026-05-05 16:07 40.59087 -73.78959 1233 ft 215 kts 135°
2026-05-05 16:08 40.58289 -73.77245 1822 ft 227 kts 120°
2026-05-05 16:08 40.57593 -73.75304 2151 ft 240 kts 121°
2026-05-05 16:08 40.56806 -73.73302 2434 ft 254 kts 123°
2026-05-05 16:08 40.55910 -73.71241 2732 ft 268 kts 125°
2026-05-05 16:09 40.54934 -73.69129 3210 ft 274 kts 127°
2026-05-05 16:09 40.53925 -73.67012 3792 ft 275 kts 127°
2026-05-05 16:09 40.52899 -73.64894 4368 ft 277 kts 128°
2026-05-05 16:09 40.51854 -73.62759 4931 ft 280 kts 128°
2026-05-05 16:10 40.50790 -73.60603 5483 ft 282 kts 128°
2026-05-05 16:10 40.49728 -73.58456 6012 ft 285 kts 128°
2026-05-05 16:10 40.48651 -73.56280 6542 ft 287 kts 129°
2026-05-05 16:10 40.47557 -73.54074 7075 ft 289 kts 129°
2026-05-05 16:11 40.46462 -73.51868 7603 ft 292 kts 129°
2026-05-05 16:11 40.43078 -73.45063 9104 ft 302 kts 129°
2026-05-05 16:12 40.41924 -73.42746 9611 ft 305 kts 129°
2026-05-05 16:12 40.39565 -73.38022 10402 ft 319 kts 129°
2026-05-05 16:13 40.37730 -73.29308 11081 ft 373 kts 73°
2026-05-05 16:13 40.38959 -73.26269 11303 ft 383 kts 47°
2026-05-05 16:13 40.41044 -73.24143 11509 ft 385 kts 20°
2026-05-05 16:14 40.46305 -73.23167 11973 ft 392 kts 358°
2026-05-05 16:14 40.51792 -73.22726 12959 ft 398 kts 359°
2026-05-05 16:15 40.57320 -73.22187 14042 ft 400 kts 359°
2026-05-05 16:15 40.62902 -73.21620 15044 ft 405 kts 360°
2026-05-05 16:16 40.68555 -73.21039 16021 ft 410 kts
2026-05-05 16:16 40.74258 -73.20447 16960 ft 416 kts
2026-05-05 16:17 40.80059 -73.19843 17872 ft 421 kts
2026-05-05 16:17 40.82983 -73.19539 18316 ft 424 kts
2026-05-05 16:18 40.88895 -73.18924 19203 ft 429 kts
2026-05-05 16:18 40.91877 -73.18611 19653 ft 432 kts
2026-05-05 16:18 40.97924 -73.17977 20487 ft 437 kts
2026-05-05 16:19 41.00917 -73.17665 20869 ft 440 kts
2026-05-05 16:19 41.03983 -73.17345 21258 ft 442 kts
2026-05-05 16:19 41.10150 -73.16695 22013 ft 447 kts
2026-05-05 16:20 41.16386 -73.16041 22704 ft 452 kts
2026-05-05 16:20 41.22677 -73.15379 23369 ft 457 kts
2026-05-05 16:21 41.29039 -73.14706 24033 ft 461 kts
2026-05-05 16:22 41.38320 -73.11633 24838 ft 478 kts 36°
2026-05-05 16:22 41.42373 -73.04681 25438 ft 483 kts 60°
2026-05-05 16:23 41.45704 -72.96873 25902 ft 489 kts 59°
2026-05-05 16:23 41.47420 -72.92914 26164 ft 491 kts 59°
2026-05-05 16:23 41.50859 -72.85054 26692 ft 494 kts 59°
2026-05-05 16:24 41.52585 -72.81121 26942 ft 496 kts 59°
2026-05-05 16:24 41.54319 -72.77168 27189 ft 498 kts 59°
2026-05-05 16:24 41.57823 -72.69164 27691 ft 501 kts 59°
2026-05-05 16:25 41.59573 -72.65156 27969 ft 502 kts 59°
2026-05-05 16:25 41.63069 -72.57129 28715 ft 499 kts 59°
2026-05-05 16:25 41.64816 -72.53135 29067 ft 498 kts 59°
2026-05-05 16:26 41.68373 -72.45246 29677 ft 497 kts 58°
2026-05-05 16:26 41.71936 -72.37370 30290 ft 496 kts 58°
2026-05-05 16:27 41.73726 -72.33395 30615 ft 495 kts 59°
2026-05-05 16:27 41.75475 -72.29501 30927 ft 493 kts 59°
2026-05-05 16:27 41.77237 -72.25573 31258 ft 492 kts 59°
2026-05-05 16:27 41.78989 -72.21656 31567 ft 490 kts 59°
2026-05-05 16:28 41.80733 -72.17757 31863 ft 489 kts 59°
2026-05-05 16:28 41.82466 -72.13872 32130 ft 489 kts 59°
2026-05-05 16:28 41.84217 -72.09945 32383 ft 488 kts 59°
2026-05-05 16:28 41.85937 -72.06081 32684 ft 487 kts 59°
2026-05-05 16:29 41.87669 -72.02183 32977 ft 485 kts 59°
2026-05-05 16:29 41.89379 -71.98329 33219 ft 485 kts 58°
2026-05-05 16:29 41.91116 -71.94414 33365 ft 486 kts 58°
2026-05-05 16:29 41.92828 -71.90547 33510 ft 487 kts 58°
2026-05-05 16:30 41.94570 -71.86608 33747 ft 487 kts 58°
2026-05-05 16:30 41.96292 -71.82751 33948 ft 487 kts 57°
2026-05-05 16:30 41.98105 -71.78900 34115 ft 487 kts 56°
2026-05-05 16:30 41.99932 -71.75095 34290 ft 487 kts 56°
2026-05-05 16:31 42.01756 -71.71299 34463 ft 488 kts 56°
2026-05-05 16:31 42.03590 -71.67467 34612 ft 488 kts 56°
2026-05-05 16:31 42.05420 -71.63626 34749 ft 489 kts 56°
2026-05-05 16:31 42.07261 -71.59750 34846 ft 490 kts 56°
2026-05-05 16:32 42.10922 -71.52008 34906 ft 493 kts 56°
2026-05-05 16:32 42.14594 -71.44219 34897 ft 495 kts 56°